INNOSAT 16 (RS92S7)

Last updated on Fri Dec 19 2025 00:03:12 GMT+0000 (Coordinated Universal Time)

1 64878U 25155C 25352.59974364 .00003630 00000+0 15799-3 0 9990 2 64878 97.4336 315.9093 0013061 99.3544 260.9170 15.22804336 53166
UTC large
Height (km)
Speed (km/s)
/
Latitude / Longitude
Inclination (degrees)
Orbital Period (minutes)
Azimuth
Elevation
Range (km)
Doppler Factor

Next 0 passes for location: London (51.5072 / 0.1276)

Sorry there are no passes over London.